Showing default

NUSAT-45 (UZMASAT-1), 62640

Orbit data source: Space-Track

NUSAT-45 (UZMASAT-1), 62640 is an Argentinean payload satellite in SSO that was launched on Tue, 14 Jan 2025 UTC via an FALCON 9 launch vehicle from the Air Force Western Test Range (AFWTR). Payload-class satellites include a variety of spacecraft equipped with specific instruments for various scientific and technological missions. These include communications satellites like Starlink; space stations such as the ISS; scientific satellites like the Hubble; Earth observation satellites from companies like Planet Labs, Umbra, and HawkEye 360; GPS; miniature CubeSats for education and research; and military/defense satellites.

Loading next visibility...
Identifier
62640, 2025-009AH
Orbit
SSO
Country
Flag of UnknownUnknown / ARGN
Related business
None
Manufacturer
URUGUS S.A.
Mission
Operational Commercial Imaging
Bus & Motor
NEWSAT V, Unknown motor
Mass
41.5 kg wet, 38.5 kg dry
Launch date (UTC)
2025-01-14 (7 months ago)
Launch vehicle
FALCON 9
Launch site
Air Force Western Test Range (AFWTR)
Object type
Payload
Rocket body
Debris
Shape & HBR
Box, 0.4 m
Radar Cross Section
0.542 m², Medium (>0.1 m² and < 1m²)

Expand to show TLE details & history
Last TLE update: 22 hours ago

TLE from 22 hours ago
0 NUSAT-45 (UZMASAT-1)
1 62640U 25009AH  25241.15098708  .00010710  00000-0  47111-3 0  9992
2 62640  97.4213 320.4383 0000875 256.5934 103.5204 15.22050210 34384
Epoch: 2025-08-29T03:37Z
TLE epoch observation values (Epoch: 2025-08-29T03:37:25.283Z)
Latitude
-0.00011°
Longitude
-71.52079°
Altitude
502.891 km
Speed
7.613 km/s
True Right ascension
21h 21m 45s
True Declination
0° 00' 00"
Sunlit
Object was in full shadow at epoch
Visualization orbit readout
Latitude
Unknown
Longitude
Unknown
Altitude
Unknown
Speed
Unknown
Apparent Right ascension
Unknown
Apparent Declination
Unknown
Sunlit
N/A
Visualization observer readout
Local Sidereal Time
16:56:59
Azimuth
Unknown
Elevation
Unknown
Doppler factor
Unknown
Orbital elements
Apogee altitude
497.223 km
Perigee altitude
496.02 km
Semi-major axis
6,874.758 km
Eccentricity
0.00009
Inclination
97.4213°
RAAN
320.4383°
Arg. of periapsis
256.5934°
True anomaly
103.53015°
Mean anomaly
103.5204°
Eccentric anomaly
103.52527°
Mean motion
3.80765 °/min
Orbital period
94.55 mins
BSTAR
0.00047111
Loading maneuver chart data...
Computing Atmospheric mass density...
Loading historical data...
Loading historical data...
Loading historical data...
Loading historical data...
Loading historical data...
Loading historical data...
Loading historical data...

Documentation

Showing up to 5 results
|